This is the latest recevied weather packets stored in our database for station/object KD2FKI. If no packets are shown the sender has not sent any weather packets the latest 10 day(s).
| Time | Temp. | Humidity | Pressure | Rain* | Wind** | Luminosity | Snow |
|---|---|---|---|---|---|---|---|
| 1777557033 | 16.11° C | 63% | - | 0 mm | - | - | - |
| 1777556438 | 16.11° C | 65% | - | 0 mm | - | - | - |
| 1777555865 | 15.56° C | 67% | - | 0 mm | - | - | - |
| 1777555236 | 15.56° C | 68% | - | 0 mm | - | - | - |
| 1777554644 | 15° C | 71% | - | 0 mm | - | - | - |
| 1777554033 | 15° C | 75% | - | 0 mm | - | - | - |
| 1777553459 | 14.44° C | 76% | - | 0 mm | - | - | - |
| 1777552831 | 13.89° C | 83% | - | 0 mm | - | - | - |
| 1777552239 | 13.33° C | 84% | - | 0 mm | - | - | - |
| 1777551646 | 13.33° C | 86% | - | 0 mm | - | - | - |
| 1777551037 | 12.78° C | 88% | - | 0 mm | - | - | - |
| 1777550444 | 12.78° C | 89% | - | 0 mm | - | - | - |
| 1777549834 | 12.78° C | 89% | - | 0 mm | - | - | - |
| 1777549241 | 12.78° C | 90% | - | 0 mm | - | - | - |
| 1777548632 | 12.22° C | 91% | - | 0.25 mm | - | - | - |
| 1777548057 | 12.22° C | 92% | - | 0.25 mm | - | - | - |
| 1777547447 | 12.22° C | 92% | - | 0.25 mm | - | - | - |
| 1777546836 | 11.67° C | 95% | - | 0.25 mm | - | - | - |
| 1777546245 | 11.67° C | 97% | - | 0.25 mm | - | - | - |
| 1777545635 | 11.11° C | 99% | - | 0.25 mm | - | - | - |
| 1777545045 | 11.11° C | 99% | - | 0 mm | - | - | - |
| 1777544432 | 10° C | 99% | - | 0 mm | - | - | - |
| 1777543839 | 10.56° C | 99% | - | 0 mm | - | - | - |
| 1777543229 | 10.56° C | 99% | - | 0 mm | - | - | - |
| 1777542655 | 10.56° C | 99% | - | 0 mm | - | - | - |
* Rain latest hour (hover to see other rain measurements)
** Current wind speed in m/s (hover to see current wind gust speed)